[[{"header":{"parameterUnit":"m.s-1","parameterCategory":1,"la1":30.2991,"la2":30.254,"lo1":-89.0895,"lo2":-89.0444,"dy":0.0017,"dx":0.0017,"nx":28,"ny":28,"refTime":"2025-04-28T03:00:00:Z","depth":0,"parameterNumber":2,"parameterNumberName":"U-component_of_WINDS"},"data":[0,0,0,0,0,0,0,0,0,0,0,0,0,0,0,0,0,0,0,0,0,0,0,0,0,0,0,0,0,0,0,0,0,0,0,0,0,0,0,0,0,0,0,0,0,0,0,0,0,0,0,0,0,0,0,0,0,0,-2.3948,-2.3948,0,-2.3973,-2.3973,-2.3974,-2.3969,-2.3969,-2.3968,-2.3968,-2.3992,-2.3993,-2.3994,0,0,0,0,0,0,0,0,0,0,0,0,0,-2.3896,-2.3897,-2.3948,-2.3948,-2.3949,-2.3973,-2.3973,-2.3974,-2.3969,-2.3969,-2.3968,-2.3968,-2.3992,-2.3993,-2.3994,0,0,0,0,0,0,0,0,0,0,0,0,0,-2.3919,-2.3897,-2.3948,-2.395,-2.395,-2.3973,-2.3973,-2.3974,-2.3969,-2.3969,-2.3968,-2.3968,-2.3991,-2.3993,-2.3995,-2.4017,0,0,-2.3999,-2.4,0,0,0,0,0,0,0,0,-2.3918,-2.3921,-2.3949,-2.3949,-2.395,-2.3967,-2.3964,-2.3988,-2.397,-2.3962,-2.3968,-2.3967,-2.3984,-2.3986,-2.3993,-2.4018,-2.4019,-2.3999,-2.4,-2.4001,-2.4002,0,0,0,0,0,0,0,-2.3917,-2.392,-2.3958,-2.3949,-2.395,-2.3949,-2.3951,-2.3968,-2.3976,-2.3963,-2.3962,-2.3965,-2.3985,-2.3991,-2.3993,-2.402,-2.3999,-2.4001,-2.4002,-2.4002,-2.4065,-2.4066,0,0,0,0,0,0,-2.3915,-2.3919,-2.3957,-2.3959,-2.3932,-2.395,-2.3953,-2.3962,-2.3976,-2.3978,-2.3966,-2.3965,-2.3989,-2.3991,-2.3994,-2.4021,-2.4001,-2.4003,-2.4003,-2.4064,-2.4065,-2.4066,0,0,0,0,0,0,-2.3913,-2.3918,-2.3956,-2.3939,-2.3944,-2.3952,-2.3962,-2.3963,-2.397,-2.3979,-2.398,-2.3971,-2.3988,-2.3992,-2.4011,-2.4022,-2.4003,-2.4005,-2.4063,-2.4065,-2.4065,-2.4075,0,0,0,0,0,0,-2.3912,-2.3918,-2.3926,-2.3939,-2.3944,-2.3973,-2.3963,-2.3964,-2.3973,-2.3972,-2.3984,-2.3985,-2.3988,-2.4009,-2.4013,-2.4023,-2.4006,-2.4062,-2.4064,-2.4065,-2.4074,-2.4076,-2.4078,0,0,0,0,0,-2.391,-2.3928,-2.3927,-2.3932,-2.3956,-2.3974,-2.3977,-2.398,-2.3973,-2.3982,-2.3988,-2.3985,-2.402,-2.4011,-2.4015,-2.4027,-2.4062,-2.4063,-2.4065,-2.4073,-2.4076,-2.4078,0,0,0,0,0,0,-2.3916,-2.393,-2.3929,-2.3951,-2.3961,-2.3973,-2.3984,-2.3983,-2.3995,-2.3994,-2.3997,-2.4,-2.4019,-2.4025,-2.4015,-2.4049,-2.404,-2.4043,-2.4044,-2.4047,-2.405,-2.4047,-2.4007,0,0,0,0,0,-2.392,-2.3934,-2.3945,-2.3964,-2.3969,-2.3976,-2.3984,-2.3985,-2.3996,-2.4,-2.4008,-2.4018,-2.4031,-2.404,-2.4053,-2.4075,-2.4077,-2.4085,-2.4087,-2.4089,-2.4091,-2.4103,-2.4106,-2.4071,-2.4071,-2.4071,0,0,-2.3928,-2.3937,-2.3946,-2.3965,-2.3973,-2.3987,-2.3979,-2.3995,-2.4005,-2.4003,-2.4021,-2.4027,-2.4039,-2.406,-2.407,-2.4065,-2.4101,-2.4091,-2.4093,-2.4093,-2.4105,-2.4108,-2.4111,-2.4072,-2.4072,-2.4072,0,0,-2.3949,-2.3958,-2.3974,-2.3983,-2.3996,-2.4,-2.4004,-2.4017,-2.4021,-2.404,-2.4038,-2.4051,-2.4074,-2.4082,-2.4089,-2.4115,-2.4112,-2.4119,-2.4131,-2.4142,-2.4145,-2.4147,-2.4156,-2.4159,-2.4121,-2.4121,-2.4121,0,-2.3957,-2.3979,-2.3983,-2.3998,-2.4007,-2.4006,-2.4022,-2.403,-2.4047,-2.4052,-2.4048,-2.4077,-2.4084,-2.4107,-2.4114,-2.412,-2.4124,-2.4117,-2.4144,-2.4147,-2.4149,-2.4157,-2.4161,-2.4122,-2.4122,-2.4122,-2.4122,0,-2.3988,-2.4003,-2.4015,-2.4031,-2.4041,-2.4056,-2.4063,-2.4072,-2.4073,-2.4078,-2.4098,-2.4107,-2.4122,-2.4128,-2.4129,-2.4151,-2.4148,-2.4144,-2.4134,-2.4153,-2.4161,-2.4164,-2.4123,-2.4123,-2.4122,-2.4122,0,0,-2.4012,-2.4031,-2.4035,-2.4043,-2.4057,-2.4069,-2.4085,-2.4099,-2.4107,-2.4119,-2.4132,-2.4152,-2.4148,-2.4156,-2.4158,-2.4169,-2.4188,-2.4164,-2.4164,-2.4167,-2.4212,-2.4215,-2.4218,-2.4187,-2.4188,-2.4188,-2.4211,0,-2.4035,-2.4063,-2.4067,-2.4092,-2.4106,-2.4106,-2.412,-2.413,-2.4135,-2.4147,-2.4153,-2.4167,-2.4162,-2.4167,-2.4177,-2.4183,-2.4197,-2.4182,-2.4198,-2.4199,-2.4194,-2.4222,-2.4224,-2.4246,-2.4214,-2.4215,-2.4215,0,-2.4064,-2.4077,-2.4103,-2.4116,-2.4122,-2.4134,-2.4148,-2.416,-2.4172,-2.4175,-2.4185,-2.4185,-2.4202,-2.4193,-2.4215,-2.4205,-2.4212,-2.4216,-2.4217,-2.4218,-2.4207,-2.4223,-2.4253,-2.4255,-2.422,-2.422,-2.4219,0,-2.4078,-2.4102,-2.4121,-2.4127,-2.4143,-2.4151,-2.4158,-2.4169,-2.4178,-2.419,-2.4196,-2.421,-2.4217,-2.4228,-2.4233,-2.4226,-2.4255,-2.4246,-2.4257,-2.4257,-2.4262,-2.4261,-2.4292,-2.4269,-2.4269,-2.4268,-2.4268,0,-2.4102,-2.4118,-2.4127,-2.4139,-2.4156,-2.4162,-2.4179,-2.4185,-2.4196,-2.4208,-2.4209,-2.4221,-2.4227,-2.4239,-2.4243,-2.426,-2.4264,-2.4267,-2.4267,-2.4266,-2.4265,-2.427,-2.4268,-2.4269,-2.4269,-2.4269,-2.4269,0,-2.4121,-2.4128,-2.4148,-2.4161,-2.4165,-2.4177,-2.4189,-2.42,-2.4205,-2.4221,-2.4225,-2.4234,-2.4249,-2.4255,-2.4273,-2.4276,-2.4295,-2.4295,-2.4291,-2.4291,-2.4302,-2.43,-2.4336,-2.434,-2.4314,-2.4314,-2.4315,0,-2.4135,-2.4147,-2.4162,-2.417,-2.4178,-2.4191,-2.42,-2.4206,-2.4215,-2.423,-2.4239,-2.4254,-2.4266,-2.429,-2.4298,-2.4311,-2.4311,-2.4323,-2.4313,-2.4311,-2.431,-2.4309,-2.431,-2.4324,-2.4324,-2.4324,-2.4325,0,-2.4159,-2.4162,-2.4175,-2.4189,-2.42,-2.4212,-2.4223,-2.423,-2.4237,-2.4248,-2.4263,-2.4273,-2.4291,-2.4306,-2.4321,-2.4327,-2.4327,-2.4328,-2.4331,-2.4329,-2.4326,-2.4327,-2.4295,-2.4327,-2.4326,-2.4326,-2.4326,-2.4326,-2.4175,-2.4186,-2.4198,-2.4212,-2.4222,-2.4232,-2.4243,-2.4251,-2.4263,-2.4279,-2.4282,-2.4298,-2.431,-2.4329,-2.4337,-2.435,-2.4347,-2.4351,-2.4352,-2.4353,-2.4353,-2.4325,-2.4352,-2.4352,-2.4352,-2.4352,-2.4352,0,-2.4198,-2.4206,-2.422,-2.4236,-2.4247,-2.4247,-2.4259,-2.4269,-2.4283,-2.4294,-2.4306,-2.4324,-2.4338,-2.4348,-2.4362,-2.4371,-2.4371,-2.4374,-2.4373,-2.4374,-2.4356,-2.4351,-2.4374,-2.4374,-2.4374,-2.4374,-2.4374,-2.4374,-2.4212,-2.423,-2.4234,-2.4257,-2.4265,-2.4281,-2.4288,-2.4298,-2.4307,-2.4326,-2.4338,-2.4345,-2.4355,-2.437,-2.4384,-2.4386,-2.4391,-2.4394,-2.4396,-2.4378,-2.4376,-2.4374,-2.4369,-2.4395,-2.4395,-2.4414,-2.4414,-2.4414]},{"header":{"parameterUnit":"m.s-1","parameterCategory":1,"la1":30.2991,"la2":30.254,"lo1":-89.0895,"lo2":-89.0444,"dy":0.0017,"dx":0.0017,"nx":28,"ny":28,"refTime":"2025-04-28T03:00:00:Z","depth":0,"parameterNumber":3,"parameterNumberName":"V-component_of_WINDS"},"data":[0,0,0,0,0,0,0,0,0,0,0,0,0,0,0,0,0,0,0,0,0,0,0,0,0,0,0,0,0,0,0,0,0,0,0,0,0,0,0,0,0,0,0,0,0,0,0,0,0,0,0,0,0,0,0,0,0,0,1.6418,1.6418,0,1.6415,1.6415,1.6415,1.6407,1.6407,1.6407,1.6407,1.6401,1.6401,1.6401,0,0,0,0,0,0,0,0,0,0,0,0,0,1.6415,1.6416,1.6418,1.6418,1.6418,1.6415,1.6415,1.6415,1.6407,1.6407,1.6407,1.6407,1.6401,1.6401,1.6401,0,0,0,0,0,0,0,0,0,0,0,0,0,1.6415,1.6416,1.6418,1.6414,1.6414,1.6415,1.6415,1.6415,1.6407,1.6407,1.6407,1.6407,1.6401,1.6401,1.6401,1.6406,0,0,1.6401,1.6401,0,0,0,0,0,0,0,0,1.6415,1.6415,1.6415,1.6414,1.6414,1.6411,1.6412,1.6412,1.6408,1.641,1.6407,1.6407,1.6405,1.6404,1.6404,1.6406,1.6405,1.6401,1.6401,1.6401,1.6401,0,0,0,0,0,0,0,1.6415,1.6415,1.6417,1.6415,1.6414,1.6412,1.6411,1.6412,1.6408,1.6409,1.6409,1.6409,1.6404,1.6404,1.6404,1.6405,1.6401,1.6401,1.6401,1.6401,1.6411,1.6411,0,0,0,0,0,0,1.6416,1.6415,1.6417,1.6417,1.6414,1.6412,1.6412,1.6412,1.6408,1.6408,1.6409,1.6408,1.6404,1.6404,1.6404,1.6409,1.6401,1.6401,1.6401,1.6411,1.6411,1.6411,0,0,0,0,0,0,1.6416,1.6416,1.6417,1.6416,1.6416,1.6412,1.6413,1.6412,1.6412,1.6408,1.6407,1.641,1.6404,1.6404,1.6406,1.6409,1.6401,1.6401,1.6411,1.6411,1.6411,1.642,0,0,0,0,0,0,1.6416,1.6416,1.6418,1.6416,1.6416,1.6419,1.6413,1.6413,1.6413,1.6412,1.6408,1.6408,1.6404,1.6406,1.6406,1.6409,1.6401,1.641,1.6411,1.6411,1.6419,1.6421,1.6422,0,0,0,0,0,1.6416,1.642,1.6418,1.6418,1.6418,1.642,1.642,1.6416,1.6413,1.6415,1.6412,1.6408,1.6409,1.6406,1.6406,1.6409,1.641,1.6411,1.6411,1.6419,1.6421,1.6422,0,0,0,0,0,0,1.6421,1.6419,1.6418,1.6421,1.6421,1.6418,1.642,1.6418,1.6417,1.6416,1.6411,1.6411,1.6413,1.6411,1.6408,1.6414,1.6409,1.6409,1.6415,1.6416,1.6417,1.6417,1.6401,0,0,0,0,0,1.6423,1.6425,1.6423,1.6427,1.6427,1.6424,1.6424,1.6422,1.6421,1.642,1.6418,1.6416,1.6416,1.6416,1.6416,1.642,1.6419,1.6422,1.6423,1.6424,1.6424,1.6427,1.6428,1.6413,1.6413,1.6413,0,0,1.6426,1.6426,1.6427,1.6428,1.6427,1.6429,1.6423,1.6425,1.6426,1.642,1.6422,1.642,1.6418,1.6421,1.6423,1.642,1.6428,1.6425,1.6426,1.6425,1.6427,1.6429,1.643,1.6414,1.6414,1.6414,0,0,1.6433,1.6433,1.6436,1.6436,1.6436,1.6434,1.6435,1.6434,1.6433,1.6435,1.6431,1.6432,1.6432,1.6431,1.643,1.6439,1.6435,1.6439,1.6445,1.6447,1.6448,1.6449,1.6452,1.6453,1.6439,1.6439,1.6439,0,1.6437,1.644,1.6438,1.6441,1.6441,1.6437,1.644,1.644,1.6439,1.6439,1.6437,1.6438,1.6436,1.6439,1.6442,1.6441,1.6442,1.6439,1.6448,1.6449,1.645,1.6453,1.6454,1.644,1.644,1.644,1.644,0,1.6445,1.6447,1.645,1.6451,1.6452,1.6454,1.6452,1.6453,1.6451,1.645,1.6453,1.6451,1.6451,1.6451,1.6449,1.6454,1.6453,1.6449,1.6444,1.6452,1.6454,1.6455,1.6441,1.644,1.644,1.644,0,0,1.6454,1.6455,1.6456,1.6456,1.6457,1.6458,1.6461,1.6462,1.6463,1.6463,1.6465,1.6466,1.6463,1.6463,1.646,1.6462,1.647,1.6459,1.6459,1.6461,1.6476,1.6478,1.6479,1.6467,1.6468,1.6468,1.6476,0,1.6461,1.6466,1.6465,1.647,1.6472,1.6469,1.6471,1.6472,1.6471,1.6472,1.6471,1.6472,1.6468,1.6468,1.647,1.6468,1.6472,1.6468,1.6469,1.6469,1.6468,1.648,1.6482,1.649,1.6477,1.6477,1.6477,0,1.6469,1.647,1.6476,1.6477,1.6477,1.648,1.6481,1.6483,1.6483,1.6482,1.6483,1.648,1.6482,1.6478,1.6482,1.6478,1.6479,1.6478,1.6479,1.6478,1.6473,1.6479,1.6492,1.6493,1.6479,1.6478,1.6478,0,1.6474,1.6478,1.6482,1.6483,1.6484,1.6485,1.6486,1.6486,1.6487,1.6488,1.6489,1.649,1.649,1.6491,1.6488,1.6486,1.6492,1.6487,1.6491,1.6491,1.6492,1.6491,1.6504,1.6493,1.6493,1.6493,1.6493,0,1.6482,1.6485,1.6485,1.6487,1.6491,1.649,1.6494,1.6494,1.6494,1.6496,1.6494,1.6496,1.6493,1.6495,1.6493,1.6496,1.6496,1.6495,1.6495,1.6495,1.6495,1.6495,1.6494,1.6493,1.6493,1.6493,1.6493,0,1.6488,1.6489,1.6493,1.6494,1.6494,1.6497,1.6498,1.65,1.65,1.6502,1.6503,1.6502,1.6504,1.6502,1.6503,1.6502,1.6507,1.6505,1.6507,1.6506,1.651,1.6509,1.6522,1.6523,1.6512,1.6512,1.6512,0,1.6493,1.6496,1.6497,1.6499,1.65,1.6503,1.6504,1.6503,1.6505,1.6506,1.6508,1.651,1.6511,1.6515,1.6514,1.6515,1.6513,1.6518,1.6513,1.6514,1.6513,1.6513,1.6513,1.6518,1.6519,1.6519,1.6519,0,1.65,1.6501,1.6503,1.6506,1.6508,1.651,1.6512,1.6513,1.6512,1.6514,1.6517,1.6518,1.652,1.6522,1.6523,1.6523,1.6521,1.652,1.6521,1.6521,1.6522,1.6522,1.6509,1.652,1.652,1.652,1.652,1.6519,1.6506,1.6508,1.6511,1.6514,1.6515,1.6517,1.6519,1.652,1.6522,1.6525,1.6524,1.6527,1.6528,1.653,1.653,1.6532,1.653,1.6531,1.6531,1.6532,1.6532,1.6523,1.6532,1.6532,1.6532,1.6532,1.6532,0,1.6513,1.6515,1.6518,1.6521,1.6523,1.6522,1.6524,1.6526,1.6529,1.6531,1.6533,1.6536,1.6538,1.6538,1.654,1.6542,1.654,1.6542,1.6541,1.6541,1.6534,1.6533,1.6543,1.6543,1.6543,1.6543,1.6543,1.6543,1.6517,1.6522,1.6523,1.6528,1.6529,1.6533,1.6534,1.6536,1.6537,1.6541,1.6543,1.6544,1.6545,1.6547,1.6549,1.6549,1.6549,1.6551,1.6551,1.6543,1.6542,1.6541,1.654,1.6551,1.6551,1.6558,1.6558,1.6558]}]]